Location: Gombori
(14.9797°N, 2.9419°W)
Time: 00:20:59
(UTC+00:00)

USA 267 - Pass Details

Date: 29 July 2021
Orbit: 1101 x 1106 km, 123.0° (Epoch: 02 September)

Event Time Altitude Azimuth Distance (km) Brightness Sun altitude
Rises 20:54:24 0° 38° (NE) 3,911 6.1 -29.6°
Reaches altitude 10° 20:56:53 10° 39° (NE) 2,954 5.4 -30.2°
Enters shadow 20:59:05 23° 40° (NE) 2,132 4.6 -30.6°
Exits shadow 21:06:57 30° 213° (SSW) 1,852 4.4 -32.2°
Drops below altitude 10° 21:09:58 10° 215° (SW) 2,955 5.5 -32.8°
Sets 21:12:26 0° 216° (SW) 3,913 6.2 -33.3°
